Find Starlink 38136

NORAD ID: 100166 Int'l Des: 2026-171 Owner: SPXS Country: US Constellation: starlink operational

Aktuelle Ansicht

3D-Globus wird geladen...

About Starlink 38136

Starlink 38136 (NORAD 100166) is a starlink constellation satellite (v2 mini) launched Jul 24, 2026 by SPXS of US. with a mass of 575.00 kg.

Nächste Überflüge

Passes for default location (London). Set your location on the main map for personalized predictions.

Höhenverlauf

Loading altitude history...

Zweizeiliger Elementsatz

1 A0166U 26171U 26224.59220526 .00161225 00000-0 82683-3 0 9994
2 A0166 97.2833 256.3773 0002983 87.5553 272.6057 15.80816629 2855
Epoch: 12. Aug. 2026 • Age: 26 hours

Aktueller Status

Höhe 330.3 km
Apogäum / Perigäum N/A
Geschwindigkeit 7.71 km/s
Subsatellitenpunkt 33.05°N, 48.02°E
Startdatum 24. Juli 2026
Alter 19 days
Typ internet

Technische Details

Klassifizierung Payload
Masse 575.00 kg
Trockenmasse 530.00 kg
Gesamtmasse 575.00 kg
Länge 0.30 m
Durchmesser 4.10 m
Spannweite 29.00 m
Form Box + pan
Hersteller SPXS
Bus-Typ Starlink V2MO
Phasenstatus In Orbit
Besitzer/Staat SPXS/US

Most Searched